1999XMD6  /99XC6M                                                           

Epoch 1999 Dec. 28.0 TT = JDT 2451540.5                 Nakano

M  31.18079              (2000.0)            P               Q

n   0.23150654     Peri.   86.64202     +0.64249142     -0.70563844

a   2.6268012      Node   317.90723     +0.39537725     +0.63927509

e   0.4217976      Incl.   26.47088     +0.65641573     +0.30561701

P   4.26           H   15.4           G   0.15           U   *

Residuals in seconds of arc 

991212 703  0.3+  0.4-    991214 118  0.3-  0.3+    000102 704  0.0   0.1-  

991212 703  0.3-  0.3+    991214 118  0.3-  0.1+    000102 704  0.2+  0.0   

991212 703  0.5+  0.7+    991214 118  0.2-  0.3+    000102 704  0.5-  0.6-  

991212 703  0.9-  0.0     991215 046  0.1-  0.1+    000102 704  0.1-  0.4-  

991213 734  0.0   0.1-    991215 046  0.2+  0.1-    000102 704  0.4-  0.0   

991213 734  0.0   0.2-    991215 046  0.3+  0.0     000104 402  0.0   0.3+  

991213 734  0.1-  0.1-    991215 046  0.1-  0.1+    000104 402  0.5+  0.3+  

991213 734  0.1+  0.0     991215 046  0.2+  0.4+    000104 402  0.2+  0.2+  

991213 670  0.8-  1.1-    991229 402  0.0   0.6+    000118 402  0.3-  0.1-  

991213 670  1.5+  0.4-    991229 402  0.1+  0.3-    000118 402  0.3+  0.3-  

991214 118  0.0   0.2+    991229 402  0.1+  0.0     000118 402  0.0   0.3+  

 

NAKANO

         **** Don't distribute anyone except personal use only ****

                (C) Copyright 2000 OAA/ComputingSection

write mail from CFAD0::NAKANO on 2000-01-19 23:24:18(JST).



1999 XM136 

Epoch 1999 Dec. 8.0 TT = JDT 2451520.5                  Nakano

M  26.53155              (2000.0)            P               Q

n   0.23140116     Peri.   86.64322     +0.64246811     -0.70568425

a   2.6275986      Node   317.90994     +0.39546515     +0.63923884

e   0.4220277      Incl.   26.46683     +0.65638558     +0.30558706

P   4.26           H   15.4           G   0.15           U   *

 

NAKANO

         **** Don't distribute anyone except personal use only ****

                (C) Copyright 2000 OAA/ComputingSection

write mail from CFAD0::NAKANO on 2000-01-05 23:21:21(JST).



 1999 XM136 

Epoch 1999 Dec. 8.0 TT = JDT 2451520.5                  Nakano

M  26.60115              (2000.0)            P               Q

n   0.23180827     Peri.   86.63404     +0.64262582     -0.70546957

a   2.6245213      Node   317.90063     +0.39514182     +0.63940001

e   0.4212065      Incl.   26.47772     +0.65642592     +0.30574550

P   4.25           H   15.4           G   0.15           U   *

 

NAKANO

         **** Don't distribute anyone except personal use only ****

                (C) Copyright 1999 OAA/ComputingSection

write mail from CFAD0::NAKANO on 1999-12-31 22:22:03(JST).

 





–ß‚è‚Ü‚·B